Location: Regensburg
(48.4565°N, 10.3217°E)
Time: 15:48:46
(UTC+01:00)

ISS - Pass Details

Date: 14 November 2017
Orbit: 402 x 407 km, 51.6° (Epoch: 23 November)

Event Time Altitude Azimuth Distance (km) Brightness Sun altitude
Exits shadow 05:45:06 45° 261° (W) 560 -3.6 -16.5°
Maximum altitude 05:45:48 60° 208° (SSW) 466 -3.7 -16.4°
Drops below altitude 10° 05:49:01 10° 128° (SE) 1,451 0.0 -15.9°
Sets 05:51:06 0° 124° (SE) 2,308 1.3 -15.5°
